Location: Prague
(50.0830°N, 14.4670°E)
Time: 22:58:52
(UTC+02:00)

N. Korean satellite - Pass Details

Date: 29 September 2021
Orbit: 450 x 495 km, 97.3° (Epoch: 23 October)

Event Time Altitude Azimuth Distance (km) Brightness Sun altitude
Rises 05:12:26 0° 31° (NNE) 2,541 11.0 -17.7°
Reaches altitude 10° 05:15:33 10° 62° (ENE) 1,666 10.5 -17.2°
Maximum altitude 05:17:10 13° 89° (E) 1,512 10.2 -17.0°
Drops below altitude 10° 05:18:47 10° 116° (ESE) 1,670 9.9 -16.7°
Sets 05:21:54 0° 146° (SSE) 2,553 10.5 -16.3°
